TIANMU-1 22

Last updated on Sun Apr 12 2026 00:02:27 GMT+0000 (Coordinated Universal Time)

1 58663U 23208D 26101.51848380 .00006804 00000+0 23612-3 0 9994 2 58663 97.4409 217.5516 0003375 195.1350 164.9790 15.30111941127138
UTC large
Height (km)
Speed (km/s)
/
Latitude / Longitude
Inclination (degrees)
Orbital Period (minutes)
Azimuth
Elevation
Range (km)
Doppler Factor

Next 0 passes for location: London (51.5072 / 0.1276)

Sorry there are no passes over London.
TIANMU-1 22